Flag for U.S.A. Weather past 2 weeks in Osage City, Kansas, U.S.A.

Now
80 °F

Sunny.


Feels Like: 82 °F
Forecast: 58 / 77 °F
Wind: 16 mph from South

Location: Forbes Field

Current Time: May 25, 2015 at 6:53:44 PM

Latest Report: May 25, 2015 at 5:53 PM


Visibility: 10 mi

Pressure: 29.76 "Hg

Humidity: 60%

Dew point: 65 °F

Location of Osage CityLocation

Historic Weather in Osage City — Graph

°F

Osage City temperature yesterday

Maximum temperature yesterday: 71 °F (at 12:53 PM)
Minimum temperature yesterday: 64 °F (at 1:01 AM)
Average temperature yesterday: 67 °F

Past Weeks' High & Low Weather Summary

 TemperatureHumidityPressure
High81 °F (May 17, 3:53 PM)94% (May 24, 1:01 AM)30.34 "Hg (May 24, 1:01 AM)
Low42 °F (May 12, 4:53 AM)32% (May 12, 3:53 PM)29.65 "Hg (May 17, 12:53 AM)
Average62 °F73%30.04 "Hg
* Reported May 10 5:53 PM — May 25 5:53 PM, Osage City, Weather by CustomWeather, © 2015

Note: Actual official high and low records may vary slightly from our data, if they occured in-between our weather recording intervals... More about our weather records

Advertising

Osage City weather history for previous 24 hours

 ConditionsComfort  
Time TempWeatherWind HumidityBarometerVisibility
5:53 PM
Mon, May 25
80 °FSunny.16 mph60%29.76 "Hg10 mi
4:53 PM79 °FSunny.20 mph62%29.74 "Hg10 mi
3:53 PM81 °FPassing clouds.22 mph60%29.77 "Hg10 mi
2:53 PM80 °FPartly sunny.24 mph62%29.80 "Hg10 mi
1:53 PM77 °FMostly cloudy.18 mph69%29.82 "Hg10 mi
12:53 PM74 °FMore clouds than sun.14 mph71%29.85 "Hg10 mi
11:53 AM74 °FBroken clouds.16 mph67%29.84 "Hg10 mi
10:53 AM73 °FScattered clouds.18 mph66%29.82 "Hg10 mi
9:53 AM69 °FSunny.12 mph73%29.84 "Hg10 mi
8:53 AM65 °FSunny.14 mph85%29.85 "Hg10 mi
8:00 AM61 °FLight rain. Broken clouds.13 mph90%29.83 "Hg8 mi
7:03 AM61 °FLight rain. Cloudy.5 mph90%29.94 "Hg7 mi
6:53 AM61 °FThunderstorms. Fog.8 mph90%29.92 "Hg2 mi
5:53 AM61 °FPassing clouds.6 mph90%29.84 "Hg10 mi
4:53 AM62 °FOvercast.8 mph90%29.82 "Hg10 mi
3:53 AM61 °FPassing clouds.3 mph93%29.81 "Hg10 mi
2:53 AM63 °FClear.5 mph90%29.80 "Hg10 mi
1:53 AM63 °FMostly cloudy.8 mph90%29.81 "Hg10 mi
12:53 AM63 °FPassing clouds.8 mph90%29.80 "Hg10 mi
11:53 PM
Sun, May 24
64 °FPassing clouds.8 mph90%29.80 "Hg10 mi
10:53 PM65 °FPassing clouds.6 mph87%29.79 "Hg10 mi
9:53 PM65 °FPassing clouds.6 mph87%29.79 "Hg10 mi
8:53 PM65 °FPartly sunny.6 mph91%29.79 "Hg10 mi
7:53 PM66 °FPartly sunny.5 mph87%29.80 "Hg10 mi
6:53 PM67 °FOvercast.5 mph81%29.81 "Hg10 mi
Weather by CustomWeather, © 2015

See weather overviewHow to use our weather pages